Dutch Harbor, AK

12:52 AM AKDT on August 18, 2017 (GMT -0800)
Unalaska

Weather History for PADU - September, 2013

Change the Weather History Date:

Sunday, September 29, 2013

  Actual Average Record
Temperature  
Mean Temperature 46 °F -  
Max Temperature 48 °F 52 °F 63 °F (1993)
Min Temperature 45 °F 40 °F 34 °F (1987)
Degree Days  
Heating Degree Days 18    
Moisture  
Dew Point 36 °F    
Average Humidity 68    
Maximum Humidity 76    
Minimum Humidity 56    
Precipitation  
Precipitation 0.00 in - - ()
Sea Level Pressure  
Sea Level Pressure 30.28 in    
Wind  
Wind Speed 15 mph (NW)    
Max Wind Speed 21 mph    
Max Gust Speed 23 mph    
Visibility 10 miles    
Events Rain    
Averages and records for this station are not official NWS values.
T = Trace of Precipitation, MM = Missing Value Source: NWS Daily Summary

Daily Weather History Graph

Daily Weather History Graph

Search for Another Location

Airport or City:

Trip Planner

Search our weather history database for the weather conditions in past years. The results will help you decide how hot, cold, wet, or windy it might be!

Date:

Astronomy

Sep. 29, 2013 Rise Set
Actual Time 9:05 AM AKDT 8:46 PM AKDT
Civil Twilight 8:30 AM AKDT 9:21 PM AKDT
Nautical Twilight 7:48 AM AKDT 10:02 PM AKDT
Astronomical Twilight 7:06 AM AKDT 10:44 PM AKDT
Moon 3:19 AM AKDT (9/29) 6:24 PM AKDT (9/29)
Length of Visible Light 12h 51m
Length of Day
11h 40m
Waning Crescent, 26% of the Moon is Illuminated
Sep 29
Waning Crescent
Oct 4
New
Oct 11
First Quarter
Oct 18
Full
Oct 26
Last Quarter

Hourly Weather History & Observations

Time (AKDT) Temp. Windchill Dew Point Humidity Pressure Visibility Wind Dir Wind Speed Gust Speed Precip Events Conditions
12:56 AM 45.0 °F 39.3 °F 30.0 °F 56% 30.23 in 10.0 mi NW 11.5 mph - N/A   Clear
1:56 AM 45.0 °F 38.5 °F 30.0 °F 56% 30.25 in 10.0 mi NW 13.8 mph - N/A   Clear
2:56 AM 45.0 °F 38.2 °F 34.0 °F 65% 30.25 in 10.0 mi WNW 15.0 mph - N/A   Clear
3:56 AM 45.0 °F 38.5 °F 36.0 °F 71% 30.25 in 10.0 mi WNW 13.8 mph - N/A   Clear
4:56 AM 45.0 °F 38.2 °F 36.0 °F 71% 30.26 in 10.0 mi WNW 15.0 mph - N/A   Scattered Clouds
5:56 AM 45.0 °F 38.5 °F 36.0 °F 71% 30.26 in 10.0 mi WNW 13.8 mph - N/A   Scattered Clouds
6:56 AM 46.0 °F 39.0 °F 36.0 °F 68% 30.26 in 10.0 mi WNW 17.3 mph 20.7 mph N/A   Mostly Cloudy
7:56 AM 46.0 °F 39.3 °F 36.0 °F 68% 30.27 in 10.0 mi NW 16.1 mph - N/A   Mostly Cloudy
8:56 AM 46.9 °F - 37.0 °F 68% 30.27 in 10.0 mi NW 20.7 mph - N/A   Mostly Cloudy
9:56 AM 46.9 °F - 37.0 °F 68% 30.28 in 10.0 mi NW 18.4 mph - N/A   Mostly Cloudy
10:56 AM 46.0 °F 39.0 °F 37.9 °F 73% 30.29 in 10.0 mi NNW 17.3 mph - 0.00 in Rain Light Rain
11:56 AM 45.0 °F 38.5 °F 37.9 °F 76% 30.30 in 10.0 mi WNW 13.8 mph 19.6 mph 0.00 in Rain Light Rain
12:18 PM 46.4 °F 40.7 °F 39.2 °F 76% 30.28 in 10.0 mi WNW 12.7 mph - 0.00 in Rain Light Rain
12:56 PM 46.9 °F - 39.0 °F 74% 30.30 in 10.0 mi NW 17.3 mph - 0.00 in Rain Light Rain
1:56 PM 46.0 °F 38.8 °F 37.9 °F 73% 30.30 in 10.0 mi NW 18.4 mph - 0.00 in Rain Light Rain
2:56 PM 48.0 °F - 37.9 °F 68% 30.30 in 10.0 mi NNW 17.3 mph - 0.00 in   Mostly Cloudy
3:56 PM 48.9 °F - 37.0 °F 64% 30.29 in 10.0 mi NW 16.1 mph - N/A   Partly Cloudy
4:56 PM 48.0 °F - 37.9 °F 68% 30.29 in 10.0 mi WNW 15.0 mph - 0.00 in Rain Light Rain
5:56 PM 48.0 °F - 36.0 °F 63% 30.30 in 10.0 mi WNW 17.3 mph 23.0 mph 0.00 in   Mostly Cloudy
6:56 PM 48.0 °F - 37.0 °F 66% 30.30 in 10.0 mi NW 18.4 mph - N/A   Overcast
7:56 PM 48.0 °F - 36.0 °F 63% 30.30 in 10.0 mi NW 17.3 mph - N/A   Overcast
8:56 PM 46.9 °F - 37.0 °F 68% 30.30 in 10.0 mi NNW 10.4 mph - N/A   Overcast
9:56 PM 46.9 °F - 37.0 °F 68% 30.31 in 10.0 mi NNW 12.7 mph - N/A   Overcast
10:56 PM 46.0 °F 39.9 °F 37.0 °F 71% 30.32 in 10.0 mi NW 13.8 mph - N/A   Partly Cloudy
11:56 PM 46.0 °F 39.6 °F 35.1 °F 66% 30.32 in 10.0 mi WNW 15.0 mph - N/A   Clear